Temp
-11 -12 -11 -12 -12 -12 -12 -12 -11 -11 -11 -12 -12 -12 -12 -11 -11 -11 -11 -11 -11 -11 -11 -11 -10 -10 -10 -9 -9 -9 -9 -9 -9 -9 -9 -9 -9 -9 -8 -8 -8 -9 -9 -9 -9 -9 -9 -9 -9
-12 -12 -12 -12 -12 -12 -13 -12 -12 -12 -12 -12 -12 -12 -12 -12 -12 -11 -11 -11 -11 -11 -11 -11 -11 -11 -10 -10 -10 -9 -9 -9 -9 -9 -9 -9 -9 -9 -8 -9 -9 -9 -9 -9 -9 -9 -9 -9 -9
-12 -12 -12 -12 -12 -12 -11 -12 -12 -12 -12 -12 -12 -12 -12 -12 -12 -12 -12 -11 -11 -11 -11 -11 -11 -11 -11 -11 -10 -10 -9 -9 -9 -9 -9 -9 -9 -9 -9 -9 -9 -9 -9 -9 -9 -9 -10 -10 -10
-12 -12 -12 -12 -12 -12 -12 -12 -12 -12 -12 -12 -12 -12 -12 -12 -12 -12 -12 -11 -11 -12 -12 -12 -12 -11 -11 -11 -11 -11 -10 -10 -10 -9 -9 -9 -9 -9 -9 -9 -9 -9 -9 -9 -9 -9 -10 -10 -10
-12 -12 -12 -12 -12 -12 -12 -13 -12 -12 -12 -12 -12 -12 -12 -12 -12 -12 -12 -12 -12 -12 -12 -12 -12 -12 -12 -12 -11 -11 -11 -10 -10 -10 -10 -9 -9 -10 -9 -9 -9 -9 -9 -9 -9 -10 -9 -10 -10
-12 -12 -12 -12 -12 -12 -13 -13 -13 -13 -13 -13 -13 -12 -12 -12 -12 -12 -12 -12 -12 -12 -13 -12 -12 -12 -12 -12 -12 -11 -11 -11 -11 -10 -10 -10 -10 -10 -10 -10 -9 -9 -9 -9 -9 -9 -10 -9 -9
-12 -12 -12 -12 -12 -12 -12 -12 -13 -13 -13 -13 -13 -12 -13 -13 -13 -13 -13 -13 -12 -12 -12 -12 -13 -13 -13 -12 -12 -12 -12 -12 -11 -11 -11 -10 -10 -10 -10 -10 -10 -9 -9 -9 -9 -9 -10 -10 -10
-12 -12 -12 -13 -13 -13 -13 -13 -12 -12 -12 -12 -13 -12 -12 -13 -13 -13 -13 -13 -13 -13 -13 -13 -13 -13 -13 -13 -12 -12 -12 -12 -12 -11 -11 -11 -11 -11 -11 -11 -10 -10 -10 -10 -10 -10 -10 -10 -10
-12 -12 -12 -12 -12 -13 -13 -13 -13 -13 -13 -13 -13 -12 -12 -13 -13 -13 -13 -13 -13 -13 -13 -13 -13 -13 -13 -13 -12 -12 -13 -12 -12 -12 -12 -11 -11 -11 -11 -11 -10 -10 -10 -10 -10 -10 -10 -10 -10
-12 -12 -12 -12 -12 -12 -13 -13 -13 -13 -13 -13 -13 -13 -13 -12 -13 -13 -12 -13 -13 -13 -13 -13 -13 -13 -13 -14 -14 -14 -14 -13 -13 -12 -12 -12 -12 -11 -11 -11 -11 -10 -10 -10 -11 -10 -10 -10 -10
-11 -11 -12 -12 -12 -12 -12 -13 -13 -13 -13 -13 -13 -13 -13 -13 -13 -13 -13 -13 -13 -13 -12 -12 -12 -13 -13 -13 -13 -14 -14 -13 -13 -13 -12 -12 -12 -12 -12 -12 -11 -10 -10 -10 -11 -11 -10 -10 -10
-11 -11 -11 -12 -12 -12 -12 -12 -12 -13 -13 -13 -13 -13 -13 -13 -13 -13 -13 -13 -13 -13 -13 -12 -12 -13 -13 -13 -13 -13 -13 -14 -14 -13 -13 -12 -12 -12 -12 -12 -12 -11 -11 -10 -10 -11 -11 -10 -11
-11 -11 -11 -11 -12 -12 -12 -12 -12 -13 -13 -13 -13 -13 -13 -13 -13 -13 -13 -13 -13 -13 -13 -13 -13 -12 -12 -13 -13 -13 -13 -13 -13 -13 -14 -13 -12 -12 -12 -11 -12 -12 -12 -12 -11 -11 -11 -11 -11
-11 -11 -11 -11 -12 -12 -12 -12 -13 -13 -13 -13 -13 -13 -13 -13 -13 -14 -14 -13 -13 -13 -13 -13 -13 -13 -13 -13 -13 -13 -13 -13 -13 -13 -13 -13 -13 -13 -12 -12 -12 -12 -13 -12 -12 -12 -11 -11 -11
-11 -11 -11 -11 -11 -12 -12 -12 -13 -13 -13 -13 -13 -13 -13 -14 -14 -14 -14 -14 -14 -14 -14 -14 -14 -14 -14 -14 -13 -13 -13 -13 -13 -13 -13 -13 -13 -13 -13 -13 -12 -12 -12 -11 -12 -13 -12 -12 -12
-11 -11 -11 -12 -12 -12 -12 -12 -13 -13 -14 -13 -13 -13 -14 -14 -14 -14 -14 -14 -14 -15 -15 -15 -15 -15 -14 -14 -14 -14 -14 -14 -14 -13 -13 -14 -13 -13 -13 -13 -13 -13 -13 -13 -13 -14 -13 -12 -12
-11 -11 -11 -12 -12 -12 -12 -12 -12 -13 -13 -14 -14 -13 -13 -14 -14 -14 -15 -15 -15 -15 -15 -15 -15 -15 -15 -15 -15 -15 -15 -15 -14 -14 -13 -14 -14 -13 -13 -13 -13 -13 -13 -14 -14 -14 -13 -13 -13
-11 -11 -12 -12 -13 -13 -13 -13 -13 -13 -13 -14 -14 -14 -14 -13 -14 -15 -15 -15 -15 -15 -16 -16 -16 -16 -16 -16 -16 -15 -15 -15 -15 -15 -14 -14 -14 -14 -14 -13 -13 -13 -13 -13 -13 -15 -15 -14 -14
-12 -12 -12 -12 -13 -13 -13 -13 -13 -13 -13 -13 -14 -14 -14 -14 -15 -15 -15 -16 -16 -16 -16 -16 -16 -16 -16 -16 -16 -16 -16 -15 -15 -15 -15 -15 -15 -15 -14 -14 -14 -13 -13 -13 -13 -13 -13 -13 -13
-12 -12 -12 -13 -13 -13 -13 -13 -13 -14 -14 -14 -14 -14 -15 -15 -15 -15 -16 -16 -16 -16 -17 -17 -16 -16 -17 -17 -17 -17 -16 -16 -16 -15 -15 -15 -15 -15 -15 -15 -14 -15 -14 -14 -13 -13 -13 -13 -13
-12 -12 -12 -12 -13 -14 -14 -14 -14 -14 -14 -14 -15 -15 -15 -15 -16 -16 -16 -16 -17 -17 -17 -17 -17 -17 -17 -17 -17 -17 -17 -17 -17 -16 -16 -15 -15 -15 -15 -15 -15 -15 -14 -14 -14 -14 -13 -13 -14
-12 -12 -13 -13 -13 -13 -14 -14 -14 -14 -15 -15 -15 -16 -16 -16 -16 -17 -17 -17 -17 -17 -17 -18 -18 -18 -18 -18 -18 -18 -18 -18 -17 -17 -17 -16 -16 -15 -15 -15 -15 -15 -15 -15 -14 -14 -14 -14 -14
-12 -12 -13 -13 -13 -14 -14 -15 -14 -14 -15 -16 -16 -16 -16 -17 -17 -17 -17 -18 -18 -18 -18 -18 -18 -18 -18 -18 -18 -18 -18 -18 -18 -18 -17 -17 -17 -16 -16 -16 -15 -15 -15 -15 -15 -14 -14 -14 -14
-13 -13 -13 -14 -14 -14 -15 -15 -15 -16 -16 -16 -16 -17 -17 -17 -17 -18 -18 -18 -18 -18 -18 -19 -19 -19 -19 -19 -19 -19 -19 -19 -19 -18 -18 -18 -17 -17 -17 -16 -16 -16 -15 -15 -15 -15 -14 -14 -14
-14 -14 -14 -14 -14 -15 -15 -16 -16 -17 -17 -17 -17 -17 -17 -18 -18 -18 -18 -18 -18 -19 -19 -19 -19 -19 -19 -19 -20 -20 -20 -20 -20 -19 -19 -19 -18 -17 -17 -17 -16 -16 -16 -16 -16 -15 -15 -15 -15
-14 -14 -15 -15 -15 -15 -15 -16 -16 -17 -18 -18 -18 -18 -18 -18 -18 -18 -18 -18 -19 -19 -19 -20 -20 -20 -20 -20 -20 -20 -20 -20 -20 -20 -20 -19 -19 -18 -18 -17 -17 -16 -16 -17 -16 -16 -16 -16 -16
-15 -15 -15 -15 -15 -15 -16 -16 -17 -17 -18 -19 -19 -19 -19 -19 -19 -19 -19 -19 -19 -19 -19 -20 -20 -20 -20 -20 -20 -21 -21 -20 -20 -20 -20 -20 -19 -19 -18 -18 -17 -17 -17 -17 -17 -16 -17 -16 -16
-16 -15 -16 -16 -16 -16 -17 -17 -17 -17 -18 -19 -19 -19 -19 -19 -19 -19 -19 -19 -19 -19 -20 -20 -20 -20 -21 -21 -21 -21 -21 -20 -20 -21 -20 -20 -19 -19 -18 -18 -18 -18 -17 -17 -17 -17 -17 -17 -17
-15 -16 -16 -17 -17 -17 -17 -18 -18 -18 -19 -19 -19 -20 -20 -19 -19 -19 -20 -20 -20 -20 -20 -21 -21 -21 -21 -22 -22 -22 -22 -21 -21 -21 -21 -20 -20 -19 -18 -18 -18 -18 -18 -18 -18 -17 -17 -17 -17
-16 -16 -17 -17 -17 -17 -18 -17 -19 -19 -19 -20 -21 -21 -20 -20 -20 -20 -20 -20 -20 -20 -21 -21 -21 -22 -22 -22 -22 -22 -22 -21 -21 -21 -21 -20 -20 -19 -19 -18 -18 -18 -18 -18 -18 -18 -17 -17 -17
Height
5794 5796 5799 5800 5805 5806 5809 5809 5808 5813 5815 5817 5817 5818 5820 5821 5823 5826 5825 5826 5827 5829 5828 5828 5829 5830 5831 5832 5833 5834 5834 5836 5836 5838 5838 5840 5841 5842 5843 5844 5845 5846 5846 5847 5848 5848 5849 5849 5850
5793 5796 5798 5799 5802 5803 5803 5804 5806 5810 5809 5811 5812 5813 5816 5819 5820 5821 5823 5823 5824 5826 5826 5827 5827 5828 5828 5829 5830 5832 5832 5833 5834 5836 5837 5838 5839 5840 5841 5843 5844 5845 5846 5846 5847 5848 5848 5849 5849
5793 5796 5797 5799 5800 5800 5801 5802 5805 5805 5805 5806 5807 5809 5811 5814 5816 5818 5819 5819 5821 5822 5823 5824 5825 5825 5826 5826 5827 5828 5830 5831 5832 5833 5835 5836 5837 5838 5840 5841 5843 5844 5845 5846 5846 5847 5848 5849 5849
5793 5796 5798 5798 5798 5800 5800 5802 5801 5802 5803 5803 5803 5805 5807 5809 5811 5813 5814 5816 5817 5819 5820 5820 5822 5822 5823 5823 5824 5825 5826 5828 5829 5830 5831 5833 5834 5836 5837 5839 5841 5842 5843 5845 5845 5846 5847 5848 5849
5795 5796 5797 5798 5799 5800 5801 5801 5801 5801 5802 5802 5801 5803 5804 5804 5807 5808 5810 5811 5813 5814 5816 5816 5817 5818 5819 5819 5820 5821 5823 5824 5826 5827 5828 5829 5830 5832 5835 5836 5838 5840 5841 5842 5844 5845 5846 5847 5848
5795 5796 5796 5797 5798 5798 5799 5799 5799 5800 5800 5801 5800 5799 5801 5802 5802 5804 5805 5807 5808 5809 5811 5811 5812 5813 5814 5815 5816 5817 5819 5820 5822 5823 5825 5826 5827 5829 5831 5833 5835 5837 5838 5839 5841 5842 5843 5845 5846
5795 5795 5795 5795 5795 5796 5797 5797 5796 5796 5798 5798 5797 5796 5800 5800 5800 5800 5801 5802 5803 5804 5805 5807 5807 5808 5810 5810 5811 5812 5814 5816 5817 5819 5820 5821 5823 5825 5827 5829 5831 5833 5835 5837 5838 5839 5840 5841 5843
5795 5795 5794 5794 5795 5796 5795 5795 5795 5794 5794 5794 5794 5794 5795 5796 5795 5796 5797 5798 5800 5800 5800 5801 5802 5803 5805 5805 5805 5807 5809 5810 5812 5814 5815 5816 5818 5820 5821 5824 5826 5828 5831 5832 5834 5835 5837 5838 5839
5797 5797 5795 5794 5793 5792 5791 5791 5792 5792 5792 5791 5790 5790 5789 5790 5790 5791 5792 5793 5794 5795 5795 5795 5796 5797 5797 5797 5799 5797 5800 5804 5807 5808 5810 5811 5812 5814 5817 5820 5821 5824 5826 5827 5828 5830 5832 5834 5835
5798 5797 5795 5794 5793 5792 5792 5790 5789 5787 5785 5786 5786 5786 5785 5785 5785 5785 5785 5786 5787 5788 5789 5789 5790 5790 5790 5791 5793 5791 5793 5797 5800 5803 5803 5804 5805 5807 5813 5813 5815 5818 5820 5821 5822 5824 5826 5829 5830
5797 5796 5795 5793 5792 5791 5789 5788 5786 5785 5785 5784 5782 5781 5781 5781 5780 5780 5780 5781 5781 5781 5782 5783 5783 5783 5784 5784 5786 5786 5788 5791 5792 5795 5796 5798 5799 5802 5807 5807 5810 5811 5813 5814 5816 5817 5819 5822 5824
5798 5795 5794 5793 5791 5790 5788 5787 5785 5783 5783 5782 5781 5780 5779 5778 5777 5776 5775 5775 5775 5775 5775 5776 5777 5777 5777 5778 5778 5780 5782 5784 5784 5787 5787 5790 5792 5795 5797 5799 5801 5804 5805 5806 5807 5809 5812 5814 5817
5799 5797 5795 5792 5790 5787 5786 5784 5783 5781 5779 5778 5776 5775 5774 5773 5772 5771 5770 5770 5770 5769 5768 5768 5769 5770 5770 5771 5771 5772 5774 5775 5778 5779 5781 5780 5780 5785 5788 5787 5789 5792 5795 5797 5798 5800 5802 5806 5809
5797 5795 5793 5791 5788 5785 5783 5781 5779 5778 5776 5774 5773 5771 5770 5768 5767 5767 5765 5764 5763 5763 5763 5762 5762 5762 5762 5763 5763 5764 5765 5767 5768 5771 5773 5773 5773 5774 5775 5775 5779 5781 5785 5788 5790 5791 5793 5797 5800
5794 5792 5791 5789 5786 5783 5781 5779 5776 5774 5772 5770 5768 5767 5765 5763 5760 5759 5758 5759 5758 5756 5755 5755 5755 5755 5755 5754 5754 5755 5755 5756 5758 5761 5763 5764 5764 5764 5765 5763 5764 5767 5775 5777 5780 5779 5784 5788 5791
5792 5790 5789 5785 5783 5780 5778 5775 5773 5769 5766 5763 5761 5760 5758 5757 5754 5754 5751 5749 5748 5749 5749 5748 5748 5747 5747 5747 5747 5746 5746 5747 5748 5750 5753 5753 5753 5754 5756 5759 5759 5759 5761 5768 5767 5773 5774 5776 5783
5790 5787 5784 5783 5778 5776 5774 5769 5769 5765 5762 5760 5755 5753 5752 5751 5748 5748 5745 5744 5743 5741 5740 5740 5740 5739 5738 5738 5738 5738 5738 5738 5739 5740 5742 5743 5743 5744 5745 5749 5750 5751 5754 5756 5757 5761 5766 5767 5771
5786 5784 5781 5777 5776 5771 5768 5765 5762 5761 5757 5755 5751 5747 5744 5743 5743 5739 5738 5736 5735 5733 5732 5730 5729 5729 5729 5729 5729 5728 5728 5729 5729 5730 5731 5733 5733 5734 5736 5738 5739 5741 5745 5747 5750 5753 5756 5759 5761
5782 5780 5777 5772 5770 5766 5761 5759 5756 5754 5751 5748 5745 5741 5737 5735 5734 5732 5730 5728 5725 5724 5723 5720 5718 5717 5717 5718 5718 5718 5718 5718 5719 5720 5721 5722 5724 5725 5725 5727 5729 5732 5735 5737 5741 5746 5748 5751 5750
5777 5773 5770 5767 5763 5760 5754 5752 5751 5747 5744 5741 5739 5735 5731 5728 5727 5725 5722 5720 5717 5715 5713 5711 5708 5706 5705 5705 5706 5706 5706 5706 5707 5709 5710 5711 5713 5715 5716 5717 5719 5720 5723 5726 5729 5733 5737 5739 5741
5774 5769 5764 5761 5757 5754 5750 5744 5744 5740 5738 5734 5731 5728 5725 5723 5720 5716 5713 5711 5708 5706 5703 5701 5699 5697 5695 5694 5693 5693 5694 5695 5695 5696 5698 5699 5701 5703 5705 5707 5709 5711 5713 5716 5718 5722 5725 5729 5731
5769 5763 5758 5753 5749 5745 5743 5737 5736 5734 5731 5727 5724 5721 5718 5714 5712 5707 5704 5701 5698 5696 5693 5690 5688 5687 5684 5682 5681 5681 5681 5682 5683 5684 5685 5687 5688 5691 5694 5695 5698 5701 5704 5707 5709 5712 5715 5718 5719
5765 5759 5752 5746 5741 5738 5735 5730 5726 5724 5722 5719 5715 5712 5709 5705 5702 5699 5695 5692 5689 5685 5682 5680 5677 5674 5673 5671 5670 5669 5669 5669 5671 5672 5673 5674 5676 5678 5682 5684 5686 5690 5693 5696 5699 5702 5704 5707 5709
5759 5752 5746 5741 5737 5734 5730 5725 5721 5716 5712 5709 5707 5703 5702 5698 5693 5690 5686 5681 5678 5675 5671 5668 5666 5662 5661 5659 5657 5656 5657 5657 5658 5659 5661 5662 5664 5666 5668 5672 5675 5678 5682 5685 5688 5691 5695 5697 5699
5753 5747 5740 5735 5732 5729 5724 5719 5715 5710 5704 5701 5698 5695 5693 5689 5685 5681 5677 5673 5668 5664 5661 5657 5654 5651 5648 5646 5644 5643 5643 5645 5646 5646 5648 5650 5652 5654 5656 5659 5662 5666 5669 5673 5676 5680 5683 5686 5689
5746 5741 5735 5727 5724 5720 5717 5712 5709 5704 5700 5694 5690 5686 5683 5680 5676 5672 5667 5663 5659 5655 5651 5647 5643 5639 5636 5634 5631 5630 5630 5631 5633 5634 5636 5638 5640 5643 5644 5648 5650 5654 5658 5661 5665 5669 5671 5675 5678
5740 5736 5729 5722 5718 5710 5707 5702 5697 5697 5692 5687 5682 5677 5673 5670 5666 5661 5657 5653 5649 5645 5641 5636 5632 5628 5624 5620 5618 5617 5617 5618 5620 5622 5624 5626 5628 5630 5633 5636 5639 5641 5645 5649 5653 5658 5660 5663 5666
5733 5729 5721 5714 5706 5700 5695 5690 5686 5685 5682 5677 5672 5668 5664 5660 5656 5652 5648 5643 5639 5634 5630 5625 5621 5616 5612 5608 5605 5604 5605 5606 5607 5610 5612 5615 5617 5619 5622 5625 5628 5631 5634 5638 5642 5646 5648 5651 5654
5725 5720 5713 5705 5697 5690 5687 5682 5677 5673 5669 5666 5663 5659 5654 5651 5647 5643 5639 5633 5629 5624 5620 5615 5610 5605 5601 5597 5595 5594 5594 5594 5596 5598 5601 5603 5606 5608 5611 5614 5617 5620 5624 5628 5631 5635 5638 5640 5643
5714 5707 5698 5691 5687 5680 5677 5673 5669 5663 5659 5658 5654 5648 5645 5641 5637 5633 5629 5624 5619 5613 5608 5603 5598 5594 5590 5587 5585 5584 5583 5584 5586 5588 5590 5593 5596 5598 5600 5603 5606 5610 5614 5617 5621 5624 5626 5628 5631
Wind_Speed
13 14 15 18 22 24 20 27 31 28 29 28 29 28 26 25 24 21 20 20 18 18 16 14 13 13 14 16 17 17 18 20 21 20 20 19 17 16 16 15 13 12 11 10 9 8 8 7 7
6 9 11 12 14 15 21 24 25 23 29 30 32 34 31 27 27 24 23 23 22 22 19 18 17 15 14 15 18 18 20 20 22 22 22 21 19 19 19 18 16 14 13 12 10 8 8 9 9
3 3 5 7 10 14 15 12 16 21 26 29 31 33 34 31 31 30 28 26 26 25 22 21 21 19 16 15 17 20 21 21 21 23 24 24 23 22 22 21 19 17 16 14 11 10 11 11 9
4 2 1 4 6 8 9 10 13 14 18 23 29 30 32 32 31 31 31 32 31 29 27 25 24 23 21 19 18 19 22 22 21 23 25 27 27 26 24 25 23 20 18 16 14 12 13 12 11
5 4 2 3 4 7 7 10 12 13 14 16 21 21 24 28 29 31 31 31 31 32 29 30 29 27 24 23 22 21 21 23 24 24 25 28 29 28 28 28 26 23 21 19 17 16 16 16 14
4 2 1 1 3 5 7 10 12 13 15 16 18 20 19 22 23 25 28 31 32 32 26 30 28 29 27 26 25 24 23 23 24 25 25 27 29 30 30 30 28 25 25 23 21 19 19 20 19
3 3 5 5 4 6 7 10 13 15 15 17 18 23 18 18 21 22 22 24 27 27 29 30 33 31 29 31 31 28 26 25 24 25 27 28 28 29 30 31 32 29 24 25 25 23 23 23 23
4 4 4 6 8 9 11 12 13 13 14 18 20 22 21 23 25 23 23 23 24 26 26 26 29 31 33 28 28 32 32 28 27 27 27 29 30 29 28 30 32 32 29 31 31 29 27 26 25
10 9 8 7 7 7 9 11 14 16 16 17 18 19 22 22 26 28 28 28 27 28 29 30 30 30 33 32 35 28 31 33 30 29 29 29 32 33 31 29 33 35 35 35 33 33 31 30 28
11 8 8 7 7 8 9 9 10 13 16 19 22 21 23 23 22 24 28 30 32 33 33 34 34 31 33 34 36 41 33 29 32 32 32 33 34 35 33 35 36 37 37 38 37 36 34 33 31
11 11 11 9 8 8 8 9 11 13 15 16 17 18 22 26 28 28 28 28 28 29 31 34 36 35 33 36 36 33 36 40 34 35 38 37 37 35 33 38 40 40 40 40 40 39 38 37 35
14 12 11 12 11 10 10 11 13 15 16 18 19 18 19 19 21 24 28 31 32 32 32 32 33 37 37 36 37 37 37 36 37 42 38 39 37 35 34 42 43 46 45 44 44 43 42 41 39
15 15 14 12 12 12 11 12 15 17 19 20 20 21 23 24 25 25 24 24 26 29 31 32 34 35 37 39 40 40 39 40 40 39 41 44 44 41 37 47 46 47 47 46 45 44 44 45 43
15 16 15 15 15 13 14 14 15 17 19 21 23 24 25 25 27 28 28 28 28 28 28 30 31 33 35 37 39 41 43 44 43 42 43 44 45 39 47 42 42 44 50 44 47 45 45 44 45
16 17 19 19 18 18 18 16 17 16 17 22 23 23 25 28 30 29 31 32 31 31 30 30 30 30 32 33 35 38 40 42 45 47 46 45 47 48 47 51 40 34 48 34 55 46 45 44 46
16 16 17 21 21 22 23 22 17 18 18 21 25 25 24 28 32 31 33 32 33 33 33 33 34 34 33 33 34 35 36 38 40 44 47 50 50 50 48 46 48 56 50 52 27 42 39 42 49
20 20 19 17 23 23 24 28 24 23 23 23 25 26 28 27 29 29 34 35 34 34 34 33 33 34 34 36 36 37 37 38 38 39 42 45 50 52 52 50 49 51 48 46 50 53 47 42 42
22 22 22 21 21 25 26 27 28 26 28 26 25 27 29 31 28 31 31 32 35 38 38 37 37 38 38 39 39 39 39 41 41 40 40 39 42 45 47 48 50 50 47 48 42 42 41 46 51
23 24 24 26 24 26 28 27 28 27 29 29 30 30 31 31 30 31 31 31 33 35 38 40 41 42 41 41 41 42 43 44 44 43 45 43 41 40 41 42 42 44 46 47 43 42 40 38 33
27 26 26 26 26 25 29 28 27 28 29 29 30 31 32 32 30 32 33 34 34 35 38 39 41 42 43 43 43 42 44 44 45 46 47 46 46 44 41 41 40 38 38 40 43 40 40 41 37
32 33 32 32 28 27 27 31 27 30 28 31 29 32 32 33 31 32 34 36 37 38 39 41 41 42 42 43 43 43 42 42 44 45 46 49 48 46 45 45 43 41 38 36 38 37 37 42 53
34 35 35 34 33 29 27 33 32 31 31 30 32 32 32 32 34 33 35 37 38 40 42 44 43 43 43 43 43 43 43 42 42 43 44 46 48 49 46 44 44 44 42 39 39 39 39 39 42
37 40 38 37 35 32 30 32 35 34 30 31 32 31 33 31 34 37 36 38 40 40 42 44 44 46 46 47 46 44 43 43 44 43 43 44 45 47 48 46 44 44 44 43 41 40 41 40 43
39 38 41 40 39 37 36 34 35 35 32 32 30 32 31 33 35 36 36 38 41 42 43 45 45 47 47 48 47 44 43 43 43 44 43 43 44 45 45 46 45 44 43 43 43 43 42 42 44
37 40 44 48 44 42 39 39 39 36 34 33 31 33 33 35 34 34 37 39 40 42 42 41 41 41 42 45 47 45 44 43 43 44 44 43 42 43 44 44 44 43 42 42 41 40 40 40 40
40 42 45 47 46 43 41 43 40 33 32 33 33 35 35 34 34 36 37 37 39 40 41 42 42 42 42 43 47 48 46 44 41 41 42 42 42 42 44 43 42 43 42 41 42 42 40 41 41
44 45 47 48 47 48 45 42 42 34 31 33 35 36 35 35 36 37 38 36 38 41 43 43 42 42 42 43 43 46 43 42 42 41 40 40 41 41 42 43 41 42 42 41 42 42 41 41 42
46 47 49 48 49 51 46 43 41 36 33 35 33 37 37 38 37 38 38 38 40 42 44 44 43 44 43 41 39 38 40 39 41 42 39 39 39 39 41 41 40 39 40 41 42 41 40 41 42
50 48 50 51 49 49 45 43 38 38 36 36 37 36 39 38 38 38 38 41 43 45 44 43 43 41 40 38 37 36 38 38 38 36 36 37 37 37 39 40 39 39 40 40 41 41 42 43 43
54 54 54 56 49 45 43 43 37 37 36 36 33 39 39 38 39 40 40 42 43 45 45 43 42 39 37 35 33 33 33 35 37 34 33 36 36 35 36 36 38 39 40 40 40 41 41 41 40
Wind_Direction
210 208 219 223 229 233 232 236 239 241 248 249 248 247 245 243 244 250 251 250 255 257 260 264 264 263 263 252 246 236 233 228 224 219 215 216 217 221 212 205 207 203 203 206 212 213 208 201 191
190 203 214 218 227 231 234 241 240 243 244 243 246 247 248 247 249 248 249 252 254 257 258 261 263 263 264 262 251 246 239 234 228 225 219 219 224 221 214 211 211 207 207 212 215 216 193 178 168
121 192 181 214 225 231 249 263 246 245 245 244 244 245 247 246 248 252 252 253 253 257 261 260 260 261 260 260 260 249 245 239 235 231 225 222 223 223 221 215 216 212 212 216 220 214 192 184 182
74 44 234 233 244 250 253 257 251 250 250 249 248 247 249 248 248 250 252 253 253 257 259 260 262 261 260 259 256 256 249 243 238 233 230 227 225 223 222 219 219 219 218 218 223 220 210 204 205
49 37 7 324 285 275 274 263 267 262 257 256 254 254 253 251 248 248 249 251 252 253 254 260 258 258 256 255 254 253 253 247 242 236 235 231 231 229 223 223 222 223 225 225 226 225 223 223 222
40 4 264 265 273 276 271 266 267 273 266 266 268 262 260 258 254 250 249 250 252 253 254 252 257 256 255 252 252 253 251 250 248 244 240 238 235 234 228 227 224 227 230 229 230 231 231 230 229
35 319 306 313 289 277 272 270 266 265 266 265 268 266 259 263 262 257 253 251 253 254 256 253 252 255 259 256 253 252 252 251 250 248 242 241 241 237 235 231 226 222 233 234 236 233 234 235 234
8 324 320 302 299 300 294 287 281 276 273 271 270 270 268 263 262 261 258 254 254 257 259 260 257 254 256 257 259 253 252 250 247 249 249 246 244 242 236 231 231 228 224 236 234 235 235 235 236
30 18 4 346 323 291 275 274 276 277 273 267 266 268 269 264 263 261 261 261 260 261 261 263 266 259 255 251 247 242 237 245 250 249 249 250 248 246 243 236 235 233 228 237 236 236 236 237 237
23 13 7 355 347 338 324 308 287 276 272 271 271 268 265 266 265 264 262 262 263 260 259 260 263 261 259 255 252 261 259 244 248 250 248 248 249 248 245 241 238 235 236 236 239 239 238 239 239
11 6 359 347 336 323 315 305 298 289 290 281 277 274 273 271 269 267 267 266 264 263 260 257 258 258 255 256 258 256 258 256 246 247 248 248 249 251 245 245 244 241 238 239 239 240 239 239 240
358 357 353 344 337 325 310 299 291 289 289 287 285 286 284 280 277 273 270 268 268 267 265 262 259 256 255 254 256 257 257 255 257 254 253 250 248 248 252 244 244 245 241 238 240 240 241 241 239
348 343 340 334 329 318 312 300 288 287 285 281 278 278 277 274 272 272 273 275 272 268 265 263 261 259 258 258 256 256 256 256 253 255 255 259 257 250 249 258 244 240 244 239 240 241 242 242 241
336 330 328 323 318 313 307 302 298 292 290 287 283 280 279 278 280 280 274 267 266 268 271 268 264 261 259 258 258 256 255 255 254 252 252 254 258 256 251 244 257 254 237 245 243 243 242 243 244
336 327 323 317 313 309 307 307 297 291 291 288 284 282 281 279 276 273 276 279 274 269 265 264 266 265 262 259 258 258 257 255 254 253 254 254 256 258 261 265 258 257 242 249 244 240 241 244 245
328 328 324 313 307 304 304 299 297 296 286 283 290 289 280 278 279 280 276 272 271 274 271 268 266 265 264 262 260 259 259 258 256 254 252 254 254 257 259 261 262 262 262 245 228 241 239 241 246
328 326 322 318 309 303 299 297 297 298 296 293 290 290 290 285 284 282 278 278 279 274 272 271 270 269 268 265 263 262 261 260 259 256 254 254 254 256 259 258 260 264 264 270 271 275 252 254 245
331 327 320 315 310 304 297 294 295 298 297 295 291 293 293 294 299 287 286 281 277 277 276 273 271 269 269 268 266 264 262 261 261 260 257 255 256 257 258 259 258 261 262 263 265 270 274 279 280
331 323 319 316 311 307 299 293 295 294 294 294 293 293 290 294 293 297 292 285 280 276 275 273 273 271 270 268 267 267 265 262 259 259 258 257 256 256 258 259 259 257 257 259 259 259 259 260 272
328 320 318 312 311 307 298 294 297 295 293 291 291 290 291 290 294 296 294 290 285 281 278 274 272 271 270 270 269 267 267 265 262 261 258 257 257 256 257 258 259 259 257 256 257 258 257 250 252
328 325 322 318 312 305 298 295 297 297 294 293 289 290 291 293 291 291 292 290 286 282 278 276 274 273 273 272 272 271 267 264 263 261 260 258 256 256 256 257 258 258 257 255 253 252 249 251 246
326 323 321 319 317 310 300 296 299 298 297 295 294 296 295 294 294 292 291 290 287 286 283 280 277 275 272 271 270 268 267 265 261 259 258 257 257 255 255 255 255 255 255 254 252 252 252 248 251
325 325 320 318 315 312 304 297 300 300 297 293 296 296 294 294 292 294 295 293 290 288 287 286 284 279 276 273 272 268 265 265 263 260 256 255 254 255 253 253 253 253 252 252 252 251 252 251 253
323 321 318 317 315 313 309 303 302 303 299 296 298 297 297 294 297 298 295 293 293 294 294 294 290 285 280 277 273 269 266 263 262 262 260 254 252 251 251 250 249 252 252 252 251 251 250 249 251
321 321 320 319 319 316 313 307 306 308 300 302 301 298 298 297 297 295 295 296 297 297 298 295 291 288 284 278 274 271 269 265 262 262 259 258 253 250 249 249 249 248 250 251 250 247 247 248 250
322 322 319 316 314 312 311 306 307 302 302 301 300 301 299 298 296 294 294 295 296 296 295 296 295 293 289 280 275 274 268 266 261 256 258 258 255 251 251 249 249 248 247 247 247 247 248 249 250
320 321 318 314 311 308 306 306 301 306 304 301 302 300 300 299 297 295 294 295 294 294 295 296 295 296 293 287 278 272 271 265 259 254 255 258 256 252 249 249 250 249 247 247 246 247 250 252 252
319 320 318 313 308 305 305 302 299 302 302 304 304 305 302 300 299 296 297 297 296 296 296 296 296 297 295 290 281 271 268 262 259 257 256 255 255 254 249 246 248 248 245 246 247 250 253 256 257
319 318 314 311 305 302 302 298 301 298 302 306 307 303 300 301 300 299 299 297 296 296 296 298 299 296 292 288 281 274 266 262 257 253 256 255 253 254 248 245 244 243 244 246 249 253 256 259 259
318 317 311 309 302 300 299 296 298 298 304 307 308 299 303 301 301 299 299 299 300 301 301 301 299 295 290 286 280 275 268 263 255 251 255 256 252 252 247 246 244 243 244 247 250 253 257 257 257